User: anonymous   Login
Location: Kott?ru
(16.6209°N, 80.6208°E)
Time: 01:21:31
(UTC+00:00)
Language:

CBERS 1 LM4 rocket - Orbit

View from above orbital plane
View from above orbital plane
View from above satellite
View from above satellite

Ground track
Ground track

The orbit data is extracted from the following two-line orbital elements,

1 25942U 99057C   20328.49827119 +.00000117 +00000-0 +53107-4 0  9997
2 25942 098.7787 301.8802 0100200 098.7403 010.3605 14.36038638103805
Epoch (UTC): 23 November 2020 11:57:30
Eccentricity: 0.0100200
inclination: 98.7787°
perigee height: 700 km
apogee height: 843 km
right ascension of ascending node: 301.8802°
argument of perigee: 98.7403°
revolutions per day: 14.36038638
mean anomaly at epoch: 10.3605°
orbit number at epoch: 10380

The dashed part of the orbit path shows where the satellite is in the earth's shadow,  

DLR